LGL4541 ELLX-EGCC

Flight info

Callsign LGL4541
Flight time N/A
Altitude 40000
Route LNO N852 TERLA L608 COA L179 LAM N57 WELIN T420 ELVOS
Aircraft B737/M-SDE2E3FGHIRWXY/LB1

Departure

Time 2026-05-06 14:35
Airport Luxembourg-Findel International Airport (ELLX)

Arrival

Time N/A
Airport Manchester Airport (EGCC)
Time Latitude Longitude Altitude Speed Heading
2026-05-06 14:03 49.63331 6.21639 1229 ft 0 kts 358°
2026-05-06 14:25 49.63325 6.21640 1229 ft 4 kts 358°
2026-05-06 14:25 49.63299 6.21641 1229 ft 3 kts 358°
2026-05-06 14:26 49.63279 6.21645 1229 ft 4 kts 316°
2026-05-06 14:26 49.63277 6.21669 1229 ft 4 kts 240°
2026-05-06 14:26 49.63286 6.21695 1229 ft 0 kts 240°
2026-05-06 14:29 49.63285 6.21693 1229 ft 1 kts 240°
2026-05-06 14:29 49.63278 6.21673 1229 ft 3 kts 240°
2026-05-06 14:30 49.63272 6.21629 1229 ft 5 kts 279°
2026-05-06 14:30 49.63266 6.21563 1229 ft 7 kts 244°
2026-05-06 14:30 49.63232 6.21529 1229 ft 6 kts 163°
2026-05-06 14:30 49.63186 6.21568 1229 ft 9 kts 150°
2026-05-06 14:31 49.63128 6.21619 1228 ft 10 kts 151°
2026-05-06 14:31 49.63094 6.21701 1224 ft 12 kts 73°
2026-05-06 14:31 49.63131 6.21821 1225 ft 13 kts 65°
2026-05-06 14:31 49.63170 6.21947 1227 ft 13 kts 64°
2026-05-06 14:32 49.63214 6.22088 1227 ft 16 kts 64°
2026-05-06 14:32 49.63267 6.22261 1223 ft 21 kts 64°
2026-05-06 14:32 49.63337 6.22483 1216 ft 26 kts 63°
2026-05-06 14:32 49.63424 6.22719 1214 ft 24 kts 60°
2026-05-06 14:33 49.63506 6.22939 1213 ft 23 kts 60°
2026-05-06 14:33 49.63584 6.23149 1212 ft 22 kts 60°
2026-05-06 14:33 49.63646 6.23319 1211 ft 14 kts 60°
2026-05-06 14:33 49.63673 6.23435 1210 ft 7 kts 106°
2026-05-06 14:34 49.63632 6.23474 1212 ft 7 kts 156°
2026-05-06 14:34 49.63588 6.23504 1213 ft 7 kts 156°
2026-05-06 14:34 49.63544 6.23530 1214 ft 7 kts 170°
2026-05-06 14:34 49.63511 6.23484 1215 ft 8 kts 238°
2026-05-06 14:35 49.63399 6.23183 1212 ft 68 kts 240°
2026-05-06 14:35 49.63046 6.22235 1214 ft 134 kts 240°
2026-05-06 14:35 49.62504 6.20780 1405 ft 169 kts 243°
2026-05-06 14:35 49.61908 6.19223 2154 ft 174 kts 243°
2026-05-06 14:36 49.61285 6.17549 2774 ft 190 kts 244°
2026-05-06 14:36 49.60578 6.15616 3065 ft 222 kts 244°
2026-05-06 14:36 49.59762 6.13402 3344 ft 254 kts 243°
2026-05-06 14:36 49.58864 6.10987 4125 ft 262 kts 242°
2026-05-06 14:37 49.57959 6.08564 5261 ft 257 kts 241°
2026-05-06 14:37 49.57065 6.06177 6394 ft 259 kts 243°
2026-05-06 14:37 49.56617 6.03493 7311 ft 262 kts 271°
2026-05-06 14:37 49.57020 6.00745 8291 ft 269 kts 296°
2026-05-06 14:38 49.58226 5.98513 9244 ft 279 kts 323°
2026-05-06 14:38 49.60025 5.97324 10163 ft 290 kts 347°
2026-05-06 14:38 49.62123 5.97057 10570 ft 318 kts 359°
2026-05-06 14:38 49.64396 5.97201 11249 ft 333 kts
2026-05-06 14:39 49.66725 5.97451 12244 ft 337 kts
2026-05-06 14:39 49.69081 5.97705 13290 ft 342 kts
2026-05-06 14:39 49.71475 5.97937 14252 ft 347 kts
2026-05-06 14:39 49.73879 5.98143 15094 ft 353 kts
2026-05-06 14:40 49.76355 5.98336 15982 ft 359 kts
2026-05-06 14:40 49.78871 5.98520 16856 ft 365 kts
2026-05-06 14:40 49.81419 5.98698 17724 ft 370 kts
2026-05-06 14:40 49.84025 5.98875 18494 ft 378 kts
2026-05-06 14:41 49.86663 5.99053 19267 ft 382 kts
2026-05-06 14:41 49.89332 5.99234 20084 ft 386 kts
2026-05-06 14:41 49.92029 5.99417 20881 ft 390 kts
2026-05-06 14:41 49.94767 5.99602 21638 ft 395 kts
2026-05-06 14:42 49.97539 5.99791 22391 ft 400 kts
2026-05-06 14:42 50.00334 5.99981 23142 ft 405 kts
2026-05-06 14:42 50.03167 6.00174 23801 ft 409 kts
2026-05-06 14:42 50.06024 6.00368 24468 ft 412 kts
2026-05-06 14:43 50.08870 6.00061 25118 ft 411 kts 343°
2026-05-06 14:43 50.11562 5.98583 25757 ft 411 kts 336°
2026-05-06 14:43 50.14242 5.96936 26321 ft 416 kts 337°
2026-05-06 14:43 50.16959 5.95295 26873 ft 421 kts 338°
2026-05-06 14:44 50.19714 5.93675 27428 ft 426 kts 339°
2026-05-06 14:44 50.22507 5.92058 27941 ft 431 kts 339°
2026-05-06 14:44 50.25336 5.90426 28458 ft 435 kts 339°
2026-05-06 14:45 50.31028 5.87136 29586 ft 440 kts 340°
2026-05-06 14:45 50.33900 5.85468 30119 ft 442 kts 340°
2026-05-06 14:45 50.36803 5.83777 30447 ft 447 kts 340°
2026-05-06 14:45 50.39736 5.82065 30784 ft 452 kts 339°
2026-05-06 14:46 50.42680 5.80344 31281 ft 451 kts 339°
2026-05-06 14:46 50.45628 5.78619 31695 ft 453 kts 339°
2026-05-06 14:46 50.48598 5.76879 32114 ft 455 kts 339°
2026-05-06 14:46 50.51566 5.75137 32590 ft 455 kts 339°
2026-05-06 14:47 50.54539 5.73391 33068 ft 454 kts 338°
2026-05-06 14:47 50.57454 5.71677 33550 ft 453 kts 338°
2026-05-06 14:47 50.60427 5.70043 33967 ft 453 kts 342°
2026-05-06 14:47 50.63460 5.68630 34293 ft 454 kts 340°
2026-05-06 14:48 50.66268 5.66424 34537 ft 452 kts 320°
2026-05-06 14:48 50.68480 5.62937 34876 ft 447 kts 304°
2026-05-06 14:48 50.69999 5.58714 35229 ft 442 kts 289°
2026-05-06 14:48 50.70984 5.54127 35511 ft 442 kts 285°
2026-05-06 14:49 50.71873 5.49475 35804 ft 442 kts 284°
2026-05-06 14:49 50.72739 5.44820 36156 ft 442 kts 284°
2026-05-06 14:49 50.73613 5.40184 36521 ft 440 kts 284°
2026-05-06 14:49 50.74504 5.35554 36874 ft 440 kts 285°
2026-05-06 14:50 50.75397 5.30990 37174 ft 440 kts 285°
2026-05-06 14:50 50.76305 5.26379 37527 ft 438 kts 285°
2026-05-06 14:50 50.77211 5.21792 37944 ft 436 kts 285°
2026-05-06 14:50 50.78111 5.17220 38243 ft 436 kts 284°
2026-05-06 14:51 50.79011 5.12640 38515 ft 436 kts 285°
2026-05-06 14:51 50.79906 5.08065 38793 ft 435 kts 285°
2026-05-06 14:51 50.80797 5.03497 39030 ft 435 kts 284°
2026-05-06 14:51 50.81679 4.98915 39217 ft 435 kts 284°
2026-05-06 14:52 50.82553 4.94336 39408 ft 436 kts 284°
2026-05-06 14:52 50.83426 4.89738 39620 ft 435 kts 284°
2026-05-06 14:52 50.84297 4.85147 39823 ft 435 kts 284°
2026-05-06 14:53 50.86046 4.75905 39873 ft 440 kts 284°
2026-05-06 14:53 50.87794 4.66643 39883 ft 436 kts 284°
2026-05-06 14:54 50.89514 4.57483 39883 ft 432 kts 285°
2026-05-06 14:54 50.91967 4.48868 39894 ft 433 kts 298°
2026-05-06 14:55 50.95134 4.40755 39888 ft 432 kts 300°
2026-05-06 14:55 50.98306 4.32662 39883 ft 432 kts 299°
2026-05-06 14:56 51.01446 4.24509 39889 ft 433 kts 299°
2026-05-06 14:56 51.04577 4.16299 39891 ft 436 kts 299°
2026-05-06 14:57 51.07720 4.08020 39891 ft 438 kts 298°
2026-05-06 14:57 51.10872 3.99693 39890 ft 440 kts 298°
2026-05-06 14:58 51.14033 3.91319 39898 ft 442 kts 298°
2026-05-06 14:58 51.17179 3.82955 39893 ft 443 kts 298°
2026-05-06 14:59 51.20346 3.74511 39900 ft 443 kts 298°
2026-05-06 14:59 51.23504 3.66066 39907 ft 443 kts 298°
2026-05-06 15:00 51.26640 3.57625 39911 ft 441 kts 298°
2026-05-06 15:00 51.29739 3.49243 39918 ft 440 kts 298°
2026-05-06 15:01 51.32843 3.40826 39924 ft 439 kts 298°
2026-05-06 15:01 51.35705 3.32242 39919 ft 435 kts 289°
2026-05-06 15:02 51.37793 3.23166 39925 ft 434 kts 288°
2026-05-06 15:02 51.39886 3.14111 39925 ft 433 kts 289°
2026-05-06 15:03 51.42009 3.05145 39939 ft 433 kts 288°
2026-05-06 15:03 51.44131 2.96099 39935 ft 433 kts 288°
2026-05-06 15:04 51.46246 2.87034 39947 ft 433 kts 289°
2026-05-06 15:04 51.48000 2.79493 39940 ft 434 kts 288°
2026-05-06 15:05 51.50448 2.68922 39942 ft 434 kts 288°
2026-05-06 15:05 51.52196 2.61349 39945 ft 435 kts 288°
2026-05-06 15:06 51.54273 2.52228 39943 ft 434 kts 285°
2026-05-06 15:06 51.55283 2.42731 39957 ft 431 kts 273°
2026-05-06 15:07 51.55694 2.33107 39949 ft 432 kts 272°
2026-05-06 15:07 51.56130 2.23480 39947 ft 432 kts 273°
2026-05-06 15:08 51.56598 2.13851 39950 ft 432 kts 273°
2026-05-06 15:08 51.57059 2.04284 39953 ft 432 kts 273°
2026-05-06 15:09 51.57524 1.94656 39953 ft 432 kts 273°
2026-05-06 15:09 51.57985 1.85031 39958 ft 431 kts 273°
2026-05-06 15:10 51.58436 1.75416 39953 ft 431 kts 273°
2026-05-06 15:10 51.58887 1.65804 39959 ft 431 kts 273°
2026-05-06 15:11 51.59323 1.56201 39959 ft 430 kts 273°
2026-05-06 15:11 51.59731 1.46595 39959 ft 430 kts 273°
2026-05-06 15:12 51.60133 1.36997 39963 ft 430 kts 273°
2026-05-06 15:12 51.60527 1.27461 39962 ft 430 kts 272°
2026-05-06 15:13 51.60904 1.17849 39963 ft 430 kts 272°
2026-05-06 15:13 51.61271 1.08238 39965 ft 430 kts 272°
2026-05-06 15:14 51.61634 0.98635 39964 ft 430 kts 272°
2026-05-06 15:14 51.61993 0.89025 39975 ft 430 kts 273°
2026-05-06 15:15 51.62402 0.79404 39966 ft 430 kts 273°
2026-05-06 15:15 51.62769 0.69787 39967 ft 430 kts 272°
2026-05-06 15:16 51.63050 0.60178 39965 ft 430 kts 272°
2026-05-06 15:16 51.63415 0.50575 39969 ft 430 kts 272°
2026-05-06 15:17 51.63752 0.40983 39973 ft 429 kts 272°
2026-05-06 15:17 51.64073 0.31368 39985 ft 429 kts 272°
2026-05-06 15:18 51.64405 0.21784 39987 ft 428 kts 276°
2026-05-06 15:18 51.65073 0.17120 39991 ft 429 kts 290°
2026-05-06 15:18 51.66359 0.12803 39993 ft 431 kts 301°
2026-05-06 15:18 51.68184 0.09007 39991 ft 432 kts 312°
2026-05-06 15:19 51.70278 0.05545 39997 ft 432 kts 313°
2026-05-06 15:19 51.74432 -0.01116 40044 ft 433 kts 313°
2026-05-06 15:20 51.78691 -0.08013 40037 ft 433 kts 313°
2026-05-06 15:20 51.82914 -0.14962 40004 ft 433 kts 312°
2026-05-06 15:21 51.87083 -0.21879 39983 ft 429 kts 312°
2026-05-06 15:21 51.89131 -0.25281 39970 ft 414 kts 312°
2026-05-06 15:21 51.91098 -0.28554 39972 ft 400 kts 312°
2026-05-06 15:21 51.93006 -0.31731 39971 ft 386 kts 312°
2026-05-06 15:22 51.94846 -0.34802 39973 ft 374 kts 312°
2026-05-06 15:22 51.98473 -0.40875 39997 ft 380 kts 311°
2026-05-06 15:23 52.02184 -0.47107 39450 ft 390 kts 312°
2026-05-06 15:23 52.04083 -0.50298 38613 ft 397 kts 312°
2026-05-06 15:23 52.06024 -0.53565 37369 ft 406 kts 311°
2026-05-06 15:23 52.08007 -0.56905 36192 ft 414 kts 311°
2026-05-06 15:24 52.10014 -0.60289 35273 ft 415 kts 311°
2026-05-06 15:24 52.12007 -0.63652 34621 ft 410 kts 311°
2026-05-06 15:24 52.13965 -0.66959 34076 ft 402 kts 311°
2026-05-06 15:24 52.15886 -0.70209 33406 ft 395 kts 311°